TimeEDT,TemperatureF,Dew PointF,Humidity,Sea Level PressureIn,VisibilityMPH,Wind Direction,Wind SpeedMPH,Gust SpeedMPH,PrecipitationIn,Events,Conditions,WindDirDegrees,DateUTC
12:12 AM,57.2,55.4,94,29.99,0.5,West,11.5,-,N/A,Fog,Fog,270,2013-05-21 04:12:00
12:24 AM,57.2,55.4,94,29.99,0.2,West,9.2,-,N/A,Fog,Fog,270,2013-05-21 04:24:00
12:29 AM,57.2,55.4,94,29.99,0.2,West,9.2,-,N/A,Fog,Fog,270,2013-05-21 04:29:00
12:36 AM,57.2,55.4,94,29.99,0.2,West,10.4,-,N/A,Fog,Fog,270,2013-05-21 04:36:00
12:48 AM,57.2,55.4,94,29.98,0.5,WSW,11.5,-,N/A,Fog,Fog,250,2013-05-21 04:48:00
12:49 AM,57.2,55.4,94,29.98,0.5,WSW,12.7,-,N/A,Fog,Fog,250,2013-05-21 04:49:00
12:53 AM,57.9,55.9,93,29.98,0.5,West,12.7,-,N/A,Fog,Fog,260,2013-05-21 04:53:00
1:01 AM,57.2,55.4,94,29.98,0.2,WSW,10.4,-,N/A,Fog,Fog,250,2013-05-21 05:01:00
1:18 AM,57.2,55.4,94,29.97,0.2,WSW,5.8,-,N/A,Fog,Fog,240,2013-05-21 05:18:00
1:53 AM,57.0,55.0,93,29.97,0.2,WSW,8.1,-,N/A,Fog,Fog,250,2013-05-21 05:53:00
2:48 AM,57.2,55.4,94,29.96,0.2,West,6.9,-,N/A,Fog,Fog,260,2013-05-21 06:48:00
2:53 AM,57.0,55.0,93,29.96,0.2,WSW,8.1,-,N/A,Fog,Fog,250,2013-05-21 06:53:00
3:07 AM,57.2,55.4,94,29.95,0.2,WSW,6.9,-,N/A,Fog,Fog,250,2013-05-21 07:07:00
3:22 AM,57.2,55.4,94,29.95,0.2,WSW,6.9,-,N/A,Fog,Fog,250,2013-05-21 07:22:00
3:32 AM,57.2,55.4,94,29.95,0.5,WSW,5.8,-,N/A,Fog,Fog,250,2013-05-21 07:32:00
3:44 AM,55.4,53.6,94,29.95,0.5,West,9.2,-,N/A,Fog,Fog,260,2013-05-21 07:44:00
3:53 AM,55.9,54.0,93,29.95,0.5,WSW,8.1,-,N/A,Fog,Fog,250,2013-05-21 07:53:00
4:41 AM,55.4,53.6,94,29.94,0.2,SW,5.8,-,N/A,Fog,Fog,230,2013-05-21 08:41:00
4:53 AM,55.9,54.0,93,29.94,0.2,SW,6.9,-,N/A,Fog,Fog,230,2013-05-21 08:53:00
5:00 AM,55.4,53.6,94,29.94,0.2,SW,6.9,-,N/A,Fog,Fog,230,2013-05-21 09:00:00
5:53 AM,55.9,54.0,93,29.97,0.2,WSW,4.6,-,N/A,Fog,Fog,240,2013-05-21 09:53:00
6:53 AM,57.0,55.0,93,29.98,0.2,WSW,4.6,-,N/A,Fog,Fog,250,2013-05-21 10:53:00
7:53 AM,57.9,55.9,93,29.98,0.2,West,4.6,-,N/A,Fog,Fog,280,2013-05-21 11:53:00
8:30 AM,60.8,57.2,88,29.98,0.2,Calm,Calm,-,N/A,Fog,Fog,0,2013-05-21 12:30:00
8:46 AM,59.0,57.2,94,29.98,0.2,Calm,Calm,-,N/A,Fog,Fog,0,2013-05-21 12:46:00
8:53 AM,60.1,57.9,93,29.98,0.2,Calm,Calm,-,N/A,Fog,Fog,0,2013-05-21 12:53:00
9:00 AM,60.8,57.2,88,29.97,0.5,South,4.6,-,N/A,Fog,Fog,180,2013-05-21 13:00:00
9:09 AM,57.2,55.4,94,29.97,0.2,South,9.2,-,N/A,Fog,Fog,190,2013-05-21 13:09:00
9:16 AM,57.2,55.4,94,29.97,0.2,South,9.2,-,N/A,Fog,Fog,190,2013-05-21 13:16:00
9:32 AM,57.2,55.4,94,29.97,0.2,SSW,6.9,-,N/A,Fog,Fog,200,2013-05-21 13:32:00
9:53 AM,57.9,55.9,93,29.96,0.2,South,5.8,-,N/A,Fog,Fog,190,2013-05-21 13:53:00
9:58 AM,57.2,55.4,94,29.96,1.0,South,5.8,-,N/A,,Mist,190,2013-05-21 13:58:00
10:06 AM,57.2,55.4,94,29.97,0.5,South,6.9,-,N/A,Fog,Fog,190,2013-05-21 14:06:00
10:22 AM,57.2,55.4,94,29.97,0.2,SSW,8.1,-,N/A,Fog,Fog,200,2013-05-21 14:22:00
10:41 AM,57.2,55.4,94,29.97,0.5,SSW,10.4,-,N/A,Fog,Fog,210,2013-05-21 14:41:00
10:48 AM,57.2,55.4,94,29.97,1.0,SSW,10.4,-,N/A,,Mist,200,2013-05-21 14:48:00
10:53 AM,57.9,55.0,90,29.97,0.5,SSW,10.4,-,N/A,Fog,Fog,210,2013-05-21 14:53:00
11:53 AM,60.1,55.9,86,29.96,0.5,SW,11.5,-,N/A,Fog,Fog,220,2013-05-21 15:53:00
11:56 AM,60.8,55.4,82,29.95,0.2,SW,11.5,-,N/A,Fog,Fog,220,2013-05-21 15:56:00
12:40 PM,60.8,57.2,88,29.95,0.2,SW,9.2,-,N/A,Fog,Fog,230,2013-05-21 16:40:00
12:53 PM,60.1,55.9,86,29.95,0.2,SW,10.4,-,N/A,Fog,Fog,220,2013-05-21 16:53:00
1:04 PM,60.8,55.4,82,29.94,0.8,SW,11.5,-,N/A,,Mist,230,2013-05-21 17:04:00
1:53 PM,60.1,55.9,86,29.94,0.8,SW,10.4,-,N/A,,Overcast,230,2013-05-21 17:53:00
2:53 PM,60.1,55.9,86,29.92,0.5,SSW,10.4,-,N/A,Fog,Fog,210,2013-05-21 18:53:00
3:53 PM,60.1,55.9,86,29.91,0.5,SW,11.5,-,N/A,Fog,Fog,230,2013-05-21 19:53:00
4:43 PM,59.0,55.4,88,29.91,0.2,WSW,10.4,-,N/A,Fog,Fog,240,2013-05-21 20:43:00
4:53 PM,59.0,55.9,90,29.91,0.2,SW,10.4,-,N/A,Fog,Fog,230,2013-05-21 20:53:00
5:53 PM,59.0,55.9,90,29.91,0.8,WSW,10.4,-,N/A,,Mist,240,2013-05-21 21:53:00
6:30 PM,57.2,55.4,94,29.90,0.2,SW,8.1,-,N/A,Fog,Fog,220,2013-05-21 22:30:00
6:53 PM,57.9,55.9,93,29.94,0.2,WNW,6.9,-,N/A,Fog,Fog,290,2013-05-21 22:53:00
7:40 PM,60.8,57.2,88,29.95,1.0,West,8.1,-,N/A,,Overcast,260,2013-05-21 23:40:00
7:53 PM,61.0,57.9,90,29.96,2.0,West,11.5,-,N/A,,Overcast,270,2013-05-21 23:53:00
8:53 PM,59.0,57.0,93,29.95,1.0,WSW,6.9,-,N/A,,Mist,250,2013-05-22 00:53:00
9:14 PM,60.8,57.2,88,29.95,2.0,West,8.1,-,N/A,,Overcast,260,2013-05-22 01:14:00
9:29 PM,60.8,57.2,88,29.95,1.5,West,4.6,-,N/A,,Overcast,270,2013-05-22 01:29:00
9:53 PM,57.9,55.9,93,29.94,0.5,SSW,6.9,-,N/A,Fog,Fog,200,2013-05-22 01:53:00
10:00 PM,57.2,55.4,94,29.93,0.2,SSW,8.1,-,N/A,Fog,Fog,200,2013-05-22 02:00:00
10:14 PM,57.2,55.4,94,29.93,0.2,SSW,4.6,-,N/A,Fog,Fog,200,2013-05-22 02:14:00
10:53 PM,57.0,55.0,93,29.92,0.2,SSW,9.2,-,N/A,Fog,Fog,200,2013-05-22 02:53:00
10:58 PM,57.2,55.4,94,29.91,0.5,South,9.2,-,N/A,Fog,Fog,190,2013-05-22 02:58:00
11:08 PM,57.2,55.4,94,29.91,0.5,SSW,9.2,-,N/A,Fog,Fog,200,2013-05-22 03:08:00
11:35 PM,57.2,55.4,94,29.93,0.2,SW,8.1,-,N/A,Fog,Fog,230,2013-05-22 03:35:00
11:37 PM,57.2,55.4,94,29.93,0.2,WSW,9.2,-,N/A,Fog,Fog,240,2013-05-22 03:37:00
11:53 PM,57.0,55.0,93,29.93,0.2,WSW,6.9,-,N/A,Fog,Fog,240,2013-05-22 03:53:00